Skip Page Navigation
NASA JPL Caltech
NASA Logo - Jet Propulsion Laboratory + View the NASA Portal
+ Near-Earth Object (NEO) Program
Search JPL
JPL Home Earth Solar System Stars & Galaxies Technology
JPL Solar System Dynamics
BODIES ORBITS EPHEMERIDES TOOLS PHYSICAL DATA DISCOVERY FAQ SITE MAP
JPL Small-Body Database Browser
Search: [ help ]  
65684 (1990 QY5)
Classification: Main-belt Asteroid          SPK-ID: 2065684
Ephemeris | Orbit Diagram | Orbital Elements | Physical Parameters | Discovery Circumstances ]

[ show orbit diagram ]
Orbital Elements at Epoch 2456800.5 (2014-May-23.0) TDB
Reference: JPL 9 (heliocentric ecliptic J2000)
 Element Value Uncertainty (1-sigma)   Units 
e .1873444424347044 1.1849e-07  
a 2.68321130822567 2.3037e-08 AU
q 2.180526581751638 3.1931e-07 AU
i 12.5422080465314 1.1473e-05 deg
node 332.4556049041821 2.6636e-05 deg
peri 26.45801346163547 3.6119e-05 deg
M 129.6755718899595 2.0966e-05 deg
tp 2456222.222344714577
(2012-Oct-21.72234471)
9.2317e-05 JED
period 1605.390690541239
4.40
2.0675e-05
5.661e-08
d
yr
n .2242444796279653 2.888e-09 deg/d
Q 3.185896034699702 2.7353e-08 AU
  Orbit Determination Parameters
   # obs. used (total)      641  
   data-arc span      8675 days (23.75 yr)  
   first obs. used      1990-08-16  
   last obs. used      2014-05-17  
   planetary ephem.      DE431  
   SB-pert. ephem.      SB431-BIG16  
   condition code      0  
   fit RMS      .54481  
   data source      ORB  
   producer      Otto Matic  
   solution date      2014-Jun-16 15:28:47  

Additional Information
 Earth MOID = 1.18131 AU 
 T_jup = 3.316 
[ show covariance matrix ]

Ephemeris | Orbit Diagram | Orbital Elements | Physical Parameters | Discovery Circumstances ]

Physical Parameter Table
Parameter Symbol Value Units Sigma Reference Notes
absolute magnitude H 13.8 mag n/a MPO280159  

65684 (1990 QY5)          Discovered 1990-Aug-29 by Holt, H. E. at Palomar (675)
Reference: 20030910/Numbers.arcLast Updated: 2004-04-19

Alternate Designations
 1990 QY5 = 1999 RB110 
Ephemeris | Orbit Diagram | Orbital Elements | Physical Parameters | Discovery Circumstances ]
ABOUT SSD CREDITS/AWARDS PRIVACY/COPYRIGHT GLOSSARY LINKS
FirstGov 2014-Jul-23 20:25 UT
(server date/time)  
NASA Home Page
Site Manager:   Donald K. Yeomans
Webmaster  Alan B. Chamberlin